Weather History for PHLI - February, 2013

Change the Weather History Date:

Wednesday, February 20, 2013

  Actual Average Record
Temperature  
Mean Temperature 72 °F 72 °F  
Max Temperature 76 °F 78 °F 86 °F (1986)
Min Temperature 69 °F 66 °F 56 °F (1960)
Degree Days  
Heating Degree Days 0 0  
Month to date heating degree days 0 0  
Since 1 July heating degree days 0 0  
Cooling Degree Days 8 7  
Month to date cooling degree days 136 140  
Year to date cooling degree days 329 349  
Growing Degree Days 22 (Base 50)    
Moisture  
Dew Point 63 °F    
Average Humidity 74    
Maximum Humidity 84    
Minimum Humidity 64    
Precipitation  
Precipitation 0.00 in 0.11 in 1.91 in (1989)
Month to date precipitation 0.44 2.21  
Year to date precipitation 6.32 5.96  
Snow  
Snow 0.00 in - - ()
Month to date snowfall 0.0  
Since 1 July snowfall 0.0  
Snow Depth 0.00 in    
Sea Level Pressure  
Sea Level Pressure 30.16 in    
Wind  
Wind Speed 21 mph (ENE)    
Max Wind Speed 24 mph    
Max Gust Speed 31 mph    
Visibility 10 miles    
Events Rain    
T = Trace of Precipitation, MM = Missing Value Source: NWS Daily Summary

Daily Weather History Graph

Daily Weather History Graph

Search for Another Location

Airport or City:

Trip Planner

Search our weather history database for the weather conditions in past years. The results will help you decide how hot, cold, wet, or windy it might be!

Date:

Astronomy

Feb. 20, 2013 Rise Set
Actual Time 7:04 AM HST 6:37 PM HST
Civil Twilight 6:42 AM HST 7:00 PM HST
Nautical Twilight 6:16 AM HST 7:26 PM HST
Astronomical Twilight 5:50 AM HST 7:52 PM HST
Moon 2:28 PM HST (2/20) 3:13 AM HST (2/20)
Length of Visible Light 12h 17m
Length of Day
11h 32m
Waxing Gibbous, 77% of the Moon is Illuminated
Feb 20
Waxing Gibbous
Feb 25
Full
Mar 4
Last Quarter
Mar 11
New
Mar 19
First Quarter

Hourly Weather History & Observations

Time (HST) Temp. Dew Point Humidity Pressure Visibility Wind Dir Wind Speed Gust Speed Precip Events Conditions
12:46 AM 69.8 °F 62.6 °F 78% 30.16 in 10.0 mi ENE 21.9 mph 31.1 mph 0.00 in   Overcast
12:53 AM 70.0 °F 63.0 °F 78% 30.16 in 10.0 mi NE 27.6 mph 35.7 mph 0.00 in   Overcast
1:49 AM 69.8 °F 64.4 °F 83% 30.15 in 10.0 mi ENE 21.9 mph - 0.00 in   Overcast
1:53 AM 69.1 °F 64.0 °F 84% 30.14 in 10.0 mi ENE 20.7 mph - 0.00 in   Overcast
2:05 AM 69.8 °F 64.4 °F 83% 30.13 in 10.0 mi ENE 19.6 mph 26.5 mph N/A   Overcast
2:53 AM 70.0 °F 64.0 °F 81% 30.12 in 10.0 mi ENE 21.9 mph 28.8 mph 0.00 in   Overcast
3:19 AM 69.8 °F 64.4 °F 83% 30.13 in 10.0 mi ENE 20.7 mph 26.5 mph N/A   Overcast
3:53 AM 70.0 °F 64.0 °F 81% 30.12 in 10.0 mi ENE 19.6 mph 28.8 mph 0.00 in   Overcast
4:08 AM 69.8 °F 64.4 °F 83% 30.12 in 10.0 mi ENE 20.7 mph - N/A   Mostly Cloudy
4:53 AM 69.1 °F 62.1 °F 78% 30.12 in 10.0 mi ENE 17.3 mph 28.8 mph 0.00 in Rain Light Rain
5:53 AM 70.0 °F 63.0 °F 78% 30.13 in 10.0 mi ENE 23.0 mph 26.5 mph 0.00 in   Mostly Cloudy
6:45 AM 71.6 °F 62.6 °F 73% 30.16 in 10.0 mi ENE 21.9 mph - N/A   Mostly Cloudy
6:53 AM 71.1 °F 63.0 °F 75% 30.16 in 10.0 mi ENE 21.9 mph - N/A   Scattered Clouds
7:53 AM 71.1 °F 64.0 °F 78% 30.17 in 10.0 mi ENE 20.7 mph 26.5 mph 0.01 in   Mostly Cloudy
8:11 AM 71.6 °F 64.4 °F 78% 30.18 in 10.0 mi NE 18.4 mph 25.3 mph N/A   Mostly Cloudy
8:53 AM 73.0 °F 64.9 °F 76% 30.19 in 10.0 mi ENE 19.6 mph - 0.00 in   Scattered Clouds
9:53 AM 73.0 °F 64.0 °F 73% 30.20 in 10.0 mi ENE 24.2 mph 31.1 mph N/A   Scattered Clouds
10:53 AM 75.0 °F 64.0 °F 69% 30.20 in 10.0 mi ENE 19.6 mph 28.8 mph 0.00 in   Mostly Cloudy
11:38 AM 75.2 °F 64.4 °F 69% 30.19 in 10.0 mi ENE 23.0 mph 29.9 mph 0.00 in   Overcast
11:51 AM 75.2 °F 64.4 °F 69% 30.20 in 10.0 mi ENE 21.9 mph - 0.00 in   Mostly Cloudy
11:53 AM 75.0 °F 64.0 °F 69% 30.19 in 10.0 mi ENE 24.2 mph 29.9 mph 0.00 in   Mostly Cloudy
12:53 PM 75.9 °F 64.0 °F 67% 30.18 in 10.0 mi ENE 23.0 mph 27.6 mph N/A   Mostly Cloudy
1:53 PM 75.9 °F 64.0 °F 67% 30.16 in 10.0 mi ENE 19.6 mph - N/A   Mostly Cloudy
2:53 PM 75.9 °F 64.0 °F 67% 30.14 in 10.0 mi ENE 20.7 mph 28.8 mph N/A   Mostly Cloudy
3:53 PM 75.0 °F 63.0 °F 66% 30.13 in 10.0 mi ENE 21.9 mph - N/A   Mostly Cloudy
4:53 PM 73.0 °F 62.1 °F 68% 30.14 in 10.0 mi ENE 23.0 mph 27.6 mph N/A   Mostly Cloudy
5:02 PM 73.4 °F 62.6 °F 69% 30.14 in 10.0 mi ENE 18.4 mph - N/A   Mostly Cloudy
5:37 PM 73.4 °F 62.6 °F 69% 30.14 in 10.0 mi ENE 18.4 mph - N/A   Mostly Cloudy
5:53 PM 72.0 °F 61.0 °F 68% 30.14 in 10.0 mi ENE 21.9 mph 27.6 mph N/A   Mostly Cloudy
6:53 PM 72.0 °F 61.0 °F 68% 30.17 in 10.0 mi ENE 21.9 mph 27.6 mph N/A   Mostly Cloudy
11:53 PM 71.1 °F 61.0 °F 70% 30.19 in 10.0 mi ENE 19.6 mph - N/A   Scattered Clouds